GW6932 Weather Reports


Display with metric or nautical units.
time (UTC)temp
F
wind
direction
speed
MPH
gust
MPH
rain 1hr
in
rain 24hr
in
rain mn
in
humidity
%
barometer
mb
20260505152940 77 254 1.0 3.0 0.00 0.00 0.00 79 1009.9
20260505152437 77 85 2.0 8.0 0.00 0.00 0.00 78 1009.9
20260505151932 77 147 2.0 6.0 0.00 0.00 0.00 79 1009.9
20260505151427 77 121 4.0 6.0 0.00 0.00 0.00 79 1009.9
20260505150925 77 188 2.0 3.0 0.00 0.00 0.00 79 1009.9
20260505150422 77 184 0.0 4.0 0.00 0.00 0.00 79 1009.8
20260505140352 76 309 2.0 4.0 0.00 0.00 0.00 80 1009.4
20260505124805 74 164 0.0 6.0 0.00 0.00 0.00 84 1008.8
20260505124302 73 104 2.0 4.0 0.00 0.00 0.00 85 1009.0
20260505123758 73 99 4.0 4.0 0.00 0.00 0.00 85 1009.2
20260505123255 73 117 0.0 3.0 0.00 0.00 0.00 86 1009.4
20260505122751 72 112 1.0 3.0 0.00 0.00 0.00 86 1009.3
20260505122249 72 87 1.0 2.0 0.00 0.00 0.00 86 1009.5
20260505121745 72 178 1.0 3.0 0.00 0.00 0.00 87 1009.2
20260505121242 72 108 2.0 2.0 0.00 0.00 0.00 87 1009.3
20260505120738 72 140 2.0 3.0 0.00 0.00 0.00 87 1009.4
20260505120234 72 175 2.0 4.0 0.00 0.00 0.00 87 1009.0
20260505115733 72 125 0.0 4.0 0.00 0.00 0.00 87 1009.0
20260505115231 72 200 0.0 3.0 0.00 0.00 0.00 87 1009.1
20260505114728 72 127 0.0 5.0 0.00 0.00 0.00 87 1008.9
20260505114223 71 100 1.0 4.0 0.00 0.00 0.00 87 1009.1
20260505113720 71 187 2.0 3.0 0.00 0.00 0.00 87 1009.3
20260505113217 72 182 2.0 3.0 0.00 0.00 0.00 87 1009.1
20260505112713 72 145 3.0 4.0 0.00 0.00 0.00 87 1009.0
20260505112212 72 187 0.0 5.0 0.00 0.00 0.00 87 1009.3
20260505111711 71 34 0.0 3.0 0.00 0.00 0.00 87 1009.2
20260505111207 71 210 4.0 4.0 0.00 0.00 0.00 87 1008.9
20260505110703 71 109 2.0 4.0 0.00 0.00 0.00 87 1008.9
20260505110201 71 117 0.0 2.0 0.00 0.00 0.00 87 1008.9
20260505102137 71 70 1.0 1.0 0.00 0.00 0.00 87 1009.1
20260505101635 71 221 2.0 2.0 0.00 0.00 0.00 87 1009.0
20260505101131 71 198 2.0 2.0 0.00 0.00 0.00 87 1009.2
20260505100627 71 145 2.0 2.0 0.00 0.00 0.00 87 1009.2
20260505100124 71 72 0.0 4.0 0.00 0.00 0.00 87 1009.2
20260505095620 71 182 1.0 2.0 0.00 0.00 0.00 87 1009.1
20260505095117 71 138 2.0 2.0 0.00 0.00 0.00 87 1009.1
20260505094614 71 123 1.0 4.0 0.00 0.00 0.00 87 1009.0
20260505094110 71 188 2.0 3.0 0.00 0.00 0.00 87 1009.3
20260505093606 70 165 2.0 4.0 0.00 0.00 0.00 87 1009.1
20260505093104 70 193 2.0 2.0 0.00 0.00 0.00 87 1009.3
20260505092601 70 94 1.0 2.0 0.00 0.00 0.00 87 1009.3
20260505092100 70 83 0.0 2.0 0.00 0.00 0.00 87 1009.3
20260505091556 70 190 2.0 3.0 0.00 0.00 0.00 87 1009.5
20260505091054 70 94 1.0 3.0 0.00 0.00 0.00 87 1009.4
20260505090552 70 182 2.0 3.0 0.00 0.00 0.00 87 1009.6
20260505090050 70 157 3.0 3.0 0.00 0.00 0.00 86 1009.3
20260505085547 70 148 0.0 3.0 0.00 0.00 0.00 86 1009.4
20260505085045 70 210 2.0 4.0 0.00 0.00 0.00 86 1009.4
20260505084543 70 133 2.0 2.0 0.00 0.00 0.00 86 1009.3
20260505084041 70 133 2.0 3.0 0.00 0.00 0.00 86 1009.2
20260505083537 70 89 0.0 3.0 0.00 0.00 0.00 85 1009.4
20260505083034 70 168 2.0 2.0 0.00 0.00 0.00 85 1009.6
20260505082530 70 160 1.0 3.0 0.00 0.00 0.00 85 1009.6
20260505082027 70 104 0.0 5.0 0.00 0.00 0.00 84 1009.7
20260505081523 71 203 2.0 3.0 0.00 0.00 0.00 84 1009.6
20260505081021 70 182 3.0 3.0 0.00 0.00 0.00 84 1009.9
20260505080517 70 141 2.0 2.0 0.00 0.00 0.00 84 1009.9
20260505080014 70 94 1.0 3.0 0.00 0.00 0.00 84 1009.8
20260505075509 70 68 2.0 2.0 0.00 0.00 0.00 84 1009.9
20260505075007 70 170 2.0 2.0 0.00 0.00 0.00 84 1009.9
20260505074504 70 137 2.0 3.0 0.00 0.00 0.00 84 1009.9
20260505074001 70 193 0.0 2.0 0.00 0.00 0.00 83 1009.9
20260505073458 70 191 2.0 2.0 0.00 0.00 0.00 83 1010.0
20260505072956 70 113 3.0 3.0 0.00 0.00 0.00 83 1010.0
20260505072452 70 146 2.0 4.0 0.00 0.00 0.00 83 1010.1
20260505071948 70 61 1.0 3.0 0.00 0.00 0.00 83 1010.2
20260505071444 70 76 1.0 2.0 0.00 0.00 0.00 83 1010.1
20260505070942 70 98 1.0 4.0 0.00 0.00 0.00 83 1010.1
20260505070438 70 300 0.0 3.0 0.00 0.00 0.00 83 1010.3
20260505065934 70 144 0.0 2.0 0.00 0.00 0.00 82 1010.0
20260505065431 70 43 1.0 2.0 0.00 0.00 0.00 82 1010.4
20260505064928 70 113 2.0 2.0 0.00 0.00 0.00 82 1010.4
20260505064425 70 97 2.0 3.0 0.00 0.00 0.00 82 1010.3
20260505063923 70 131 2.0 3.0 0.00 0.00 0.00 82 1010.4
20260505063419 70 74 2.0 3.0 0.00 0.00 0.00 82 1010.7
20260505062916 70 105 1.0 2.0 0.00 0.00 0.00 82 1010.8
20260505062413 69 255 0.0 2.0 0.00 0.00 0.00 82 1010.6
20260505061909 69 211 1.0 2.0 0.00 0.00 0.00 82 1010.7
20260505061408 69 165 0.0 2.0 0.00 0.00 0.00 82 1010.8
20260505060905 69 119 2.0 4.0 0.00 0.00 0.00 81 1010.9
20260505060402 70 186 0.0 1.0 0.00 0.00 0.00 81 1010.7
20260505055858 70 158 1.0 2.0 0.00 0.00 0.00 81 1010.6
20260505055354 70 181 2.0 2.0 0.00 0.00 0.00 81 1010.7
20260505054851 70 176 2.0 2.0 0.00 0.00 0.00 80 1010.8
20260505054348 70 111 1.0 3.0 0.00 0.00 0.00 80 1010.7
20260505053847 70 127 1.0 2.0 0.00 0.00 0.00 80 1010.9
20260505053343 70 194 2.0 2.0 0.00 0.00 0.00 79 1011.0
20260505052840 70 128 2.0 2.0 0.00 0.00 0.00 79 1011.1
20260505052337 70 177 2.0 3.0 0.00 0.00 0.00 79 1011.2
20260505051834 71 96 1.0 3.0 0.00 0.00 0.00 78 1011.2
20260505051331 71 138 2.0 3.0 0.00 0.00 0.00 78 1011.3
20260505050829 71 57 0.0 2.0 0.00 0.00 0.00 77 1011.4
20260505050328 71 127 2.0 4.0 0.00 0.00 0.00 77 1011.3
20260505041757 72 186 3.0 6.0 0.00 0.00 0.00 74 1011.1
20260505041255 72 118 2.0 7.0 0.00 0.00 0.00 73 1011.0
20260505040752 72 222 3.0 4.0 0.00 0.00 0.00 73 1011.0
20260505040249 73 136 2.0 5.0 0.00 0.00 0.00 73 1011.4
20260505035746 73 120 0.0 4.0 0.00 0.00 0.00 72 1011.2
20260505035242 73 167 1.0 4.0 0.00 0.00 0.00 73 1011.4
20260505034739 73 148 2.0 6.0 0.00 0.00 0.00 73 1011.2
20260505034236 73 148 2.0 6.0 0.00 0.00 0.00 73 1011.2
20260505033732 73 96 0.0 5.0 0.00 0.00 0.00 73 1011.3
20260505033230 73 200 4.0 6.0 0.00 0.00 0.00 73 1011.7
20260505032728 73 201 5.0 6.0 0.00 0.00 0.00 73 1011.6
20260505032224 73 184 3.0 7.0 0.00 0.00 0.00 73 1011.6
20260505031721 73 173 2.0 6.0 0.00 0.00 0.00 73 1011.5
20260505031218 73 46 2.0 4.0 0.00 0.00 0.00 73 1011.5
20260505030715 73 114 2.0 4.0 0.00 0.00 0.00 72 1011.5
20260505030211 73 204 1.0 6.0 0.00 0.00 0.00 72 1011.5
20260505025707 73 3 0.0 4.0 0.00 0.00 0.00 72 1011.3
20260505025205 73 111 2.0 3.0 0.00 0.00 0.00 72 1011.3
20260505024703 73 15 3.0 9.0 0.00 0.00 0.00 71 1011.3
20260505024159 73 93 2.0 6.0 0.00 0.00 0.00 71 1011.1
20260505023657 73 134 3.0 5.0 0.00 0.00 0.00 71 1011.3
20260505023154 73 162 2.0 4.0 0.00 0.00 0.00 71 1011.2
20260505022652 73 119 4.0 4.0 0.00 0.00 0.00 71 1011.3
20260505022149 73 194 1.0 4.0 0.00 0.00 0.00 71 1011.4
20260505021645 73 182 2.0 5.0 0.00 0.00 0.00 71 1011.3
20260505021142 73 136 2.0 11.0 0.00 0.00 0.00 70 1011.3
20260505020637 73 119 1.0 4.0 0.00 0.00 0.00 70 1011.3
20260505020134 74 127 3.0 4.0 0.00 0.00 0.00 70 1010.9
20260505015631 74 121 2.0 4.0 0.00 0.00 0.00 70 1010.9
20260505015127 74 141 0.0 6.0 0.00 0.00 0.00 70 1011.1
20260505014624 74 128 8.0 10.0 0.00 0.00 0.00 70 1010.9
20260505014121 73 125 4.0 4.0 0.00 0.00 0.00 70 1010.9
20260505013619 73 109 2.0 4.0 0.00 0.00 0.00 70 1011.1
20260505013116 73 135 0.0 3.0 0.00 0.00 0.00 70 1010.8
20260505012614 73 68 0.0 3.0 0.00 0.00 0.00 70 1010.9
20260505012111 73 121 3.0 5.0 0.00 0.00 0.00 70 1010.9
20260505011606 74 119 3.0 6.0 0.00 0.00 0.00 69 1010.9
20260505011104 74 131 1.0 5.0 0.00 0.00 0.00 69 1010.9
20260505010604 74 144 1.0 4.0 0.00 0.00 0.00 68 1010.9
20260505005557 74 120 2.0 5.0 0.00 0.00 0.00 68 1010.8
20260505005055 74 124 1.0 9.0 0.00 0.00 0.00 67 1010.8
20260505004552 75 165 2.0 5.0 0.00 0.00 0.00 66 1010.6
20260505004049 75 125 4.0 5.0 0.00 0.00 0.00 66 1010.6
20260505003546 75 162 1.0 5.0 0.00 0.00 0.00 65 1010.5
20260505003043 76 111 3.0 9.0 0.00 0.00 0.00 65 1010.7
20260505002538 76 99 2.0 4.0 0.00 0.00 0.00 66 1010.7
20260505002037 76 95 1.0 7.0 0.00 0.00 0.00 65 1010.8
20260505001534 76 161 3.0 6.0 0.00 0.00 0.00 65 1010.6
20260505001031 76 122 2.0 5.0 0.00 0.00 0.00 64 1010.7
20260505000529 76 72 0.0 6.0 0.00 0.00 0.00 65 1010.7
20260505000026 76 133 4.0 7.0 0.00 0.00 0.00 64 1010.9
20260504235523 76 137 3.0 4.0 0.00 0.00 0.00 64 1010.8
20260504235019 76 107 3.0 5.0 0.00 0.00 0.00 64 1011.0
20260504234516 77 93 3.0 6.0 0.00 0.00 0.00 63 1010.7
20260504234013 77 131 6.0 8.0 0.00 0.00 0.00 62 1010.7
20260504233508 77 76 2.0 6.0 0.00 0.00 0.00 62 1010.9
20260504233006 78 151 6.0 6.0 0.00 0.00 0.00 61 1010.9
20260504232503 78 140 2.0 6.0 0.00 0.00 0.00 61 1011.1
20260504232000 78 89 6.0 9.0 0.00 0.00 0.00 60 1010.8
20260504231456 78 250 1.0 8.0 0.00 0.00 0.00 61 1011.0
20260504230953 78 155 6.0 8.0 0.00 0.00 0.00 59 1011.0
20260504230449 79 152 3.0 9.0 0.00 0.00 0.00 58 1011.4
20260504225948 79 102 3.0 5.0 0.00 0.00 0.00 58 1011.2
20260504225444 79 96 2.0 6.0 0.00 0.00 0.00 57 1011.1
20260504224942 80 129 2.0 11.0 0.00 0.00 0.00 55 1011.3
20260504224438 80 179 1.0 6.0 0.00 0.00 0.00 55 1011.1
20260504223936 80 136 3.0 6.0 0.00 0.00 0.00 54 1011.3
20260504223431 80 93 3.0 4.0 0.00 0.00 0.00 54 1011.4
20260504222927 80 129 1.0 5.0 0.00 0.00 0.00 53 1011.4
20260504222425 80 171 2.0 5.0 0.00 0.00 0.00 53 1011.6
20260504221923 80 129 3.0 5.0 0.00 0.00 0.00 54 1011.5
20260504221419 81 140 2.0 4.0 0.00 0.00 0.00 52 1011.5
20260504220916 81 21 1.0 5.0 0.00 0.00 0.00 52 1011.5
20260504220413 81 145 2.0 5.0 0.00 0.00 0.00 52 1011.4
20260504215910 81 104 3.0 6.0 0.00 0.00 0.00 51 1011.6
20260504215407 82 103 3.0 5.0 0.00 0.00 0.00 50 1011.6
20260504214903 82 223 0.0 5.0 0.00 0.00 0.00 48 1011.7
20260504214400 83 199 1.0 6.0 0.00 0.00 0.00 49 1011.9
20260504213856 82 175 2.0 3.0 0.00 0.00 0.00 48 1011.8
20260504213352 83 165 2.0 9.0 0.00 0.00 0.00 48 1011.7
20260504212850 84 174 0.0 7.0 0.00 0.00 0.00 48 1011.6
20260504212346 83 146 3.0 5.0 0.00 0.00 0.00 48 1011.9
20260504211844 83 294 2.0 4.0 0.00 0.00 0.00 48 1012.1
20260504211339 83 103 0.0 5.0 0.00 0.00 0.00 49 1012.1
20260504210837 83 187 1.0 5.0 0.00 0.00 0.00 49 1012.0
20260504210334 83 106 2.0 5.0 0.00 0.00 0.00 48 1012.2
20260504205831 84 107 1.0 5.0 0.00 0.00 0.00 50 1012.2
20260504205329 83 105 3.0 7.0 0.00 0.00 0.00 47 1012.4
20260504204827 83 202 1.0 4.0 0.00 0.00 0.00 49 1012.5
20260504204325 83 223 3.0 6.0 0.00 0.00 0.00 47 1012.7
20260504203824 82 77 3.0 4.0 0.00 0.00 0.00 47 1012.5
20260504203321 84 142 2.0 4.0 0.00 0.00 0.00 46 1012.6
20260504202816 84 208 1.0 4.0 0.00 0.00 0.00 46 1013.0
20260504202314 83 315 1.0 3.0 0.00 0.00 0.00 48 1012.9
20260504201810 82 167 4.0 4.0 0.00 0.00 0.00 49 1013.0
20260504201308 82 98 1.0 5.0 0.00 0.00 0.00 48 1013.1
20260504200805 83 295 1.0 6.0 0.00 0.00 0.00 47 1013.3
20260504200301 83 282 2.0 8.0 0.00 0.00 0.00 46 1013.2
20260504195757 82 128 2.0 6.0 0.00 0.00 0.00 49 1013.4
20260504195253 83 206 3.0 5.0 0.00 0.00 0.00 45 1013.6
20260504194750 83 58 0.0 5.0 0.00 0.00 0.00 47 1013.5
20260504194247 82 184 1.0 4.0 0.00 0.00 0.00 50 1013.7
20260504193743 82 106 1.0 7.0 0.00 0.00 0.00 49 1013.7
20260504193241 82 171 2.0 4.0 0.00 0.00 0.00 47 1013.6
20260504192739 83 356 1.0 2.0 0.00 0.00 0.00 47 1013.9
20260504192237 82 83 1.0 3.0 0.00 0.00 0.00 49 1013.7
20260504191735 82 50 1.0 10.0 0.00 0.00 0.00 49 1013.7
20260504191232 82 108 0.0 6.0 0.00 0.00 0.00 48 1014.0
20260504190727 82 284 3.0 4.0 0.00 0.00 0.00 49 1014.1
20260504190224 82 190 0.0 3.0 0.00 0.00 0.00 48 1014.0
20260504185720 82 294 0.0 6.0 0.00 0.00 0.00 47 1014.3
20260504185217 83 210 5.0 5.0 0.00 0.00 0.00 46 1014.3
20260504184713 83 205 4.0 4.0 0.00 0.00 0.00 44 1014.2
20260504184209 82 152 1.0 5.0 0.00 0.00 0.00 50 1014.6
20260504183705 81 122 4.0 6.0 0.00 0.00 0.00 48 1014.4
20260504183202 81 113 6.0 6.0 0.00 0.00 0.00 49 1014.4
20260504182700 81 95 3.0 5.0 0.00 0.00 0.00 50 1014.4
20260504182157 80 107 1.0 4.0 0.00 0.00 0.00 50 1014.7
20260504181655 80 108 4.0 5.0 0.00 0.00 0.00 50 1014.6
20260504181152 80 98 1.0 5.0 0.00 0.00 0.00 49 1014.7
20260504180651 81 230 2.0 5.0 0.00 0.00 0.00 47 1014.8
20260504180149 80 126 5.0 5.0 0.00 0.00 0.00 48 1015.0
20260504175646 81 208 3.0 6.0 0.00 0.00 0.00 46 1015.0
20260504175143 80 125 2.0 4.0 0.00 0.00 0.00 50 1014.9
20260504174641 80 191 2.0 5.0 0.00 0.00 0.00 49 1014.9
20260504174137 80 228 3.0 6.0 0.00 0.00 0.00 50 1014.9
20260504173635 80 93 0.0 6.0 0.00 0.00 0.00 47 1015.1
20260504173132 80 305 3.0 4.0 0.00 0.00 0.00 48 1015.3
20260504172629 79 232 0.0 5.0 0.00 0.00 0.00 51 1015.1
20260504172125 79 254 7.0 12.0 0.00 0.00 0.00 49 1015.4
20260504171621 78 99 3.0 6.0 0.00 0.00 0.00 51 1015.5
20260504171119 78 213 0.0 4.0 0.00 0.00 0.00 52 1015.5
20260504170615 79 106 2.0 6.0 0.00 0.00 0.00 50 1015.7
20260504170113 79 292 3.0 6.0 0.00 0.00 0.00 50 1015.8